This demonstration page uses our WeatherBlox Daily Observations layout. Learn more.

Left ArrowRight Arrow

40.97296, -117.73568

Hourly Observations for May 26, 2022

Temp ( °F °C ) Dew Point ( °F °C ) Humidity (%) Winds ( mph kmh ) Pressure ( in mb ) Visibility ( mi km ) Precip ( " mm )
12:56 am 00:56 Clear 53 11.7 30 -1.1 41 41 ESE 7 11 29.80 1009 10 16 0.00 0.00
1:56 am 01:56 Clear 50 10 27 -2.8 41 41 VRB 3 6 29.81 1010 10 16 0.00 0.00
2:56 am 02:56 Clear 50 10 28 -2.2 43 43 Calm 29.81 1009 10 16 0.00 0.00
3:56 am 03:56 Clear 47 8.3 30 -1.1 52 52 Calm 29.83 1010 10 16 0.00 0.00
4:56 am 04:56 Clear 45 7.2 28 -2.2 52 52 SSE 7 11 29.83 1010 10 16 0.00 0.00
5:56 am 05:56 Sunny 47 8.3 32 0 56 56 SSE 5 7 29.84 1010 10 16 0.00 0.00
6:56 am 06:56 Sunny 54 12.2 31 -0.6 42 42 ENE 3 6 29.84 1011 10 16 0.00 0.00
7:56 am 07:56 Sunny 64 17.8 34 1.1 33 33 Calm 29.83 1010 10 16 0.00 0.00
8:56 am 08:56 Sunny 74 23.3 35 1.7 24 24 N 3 6 29.83 1010 10 16 0.00 0.00
9:56 am 09:56 Sunny 82 27.8 34 1.1 18 18 VRB 3 6 29.82 1010 10 16 0.00 0.00
10:56 am 10:56 Sunny 85 29.4 32 0 15 15 undefined N/A 29.79 1009 10 16 0.00 0.00
11:56 am 11:56 Sunny 89 31.7 31 -0.6 12 12 SSW 10 17 29.76 1008 10 16 0.00 0.00
12:56 pm 12:56 Mostly Sunny 90 32.2 31 -0.6 12 12 SSW 13 20 29.75 1007 10 16 0.00 0.00
1:56 pm 13:56 Sunny 91 32.8 30 -1.1 11 11 SW 18 30 29.72 1007 10 16 0.00 0.00
2:56 pm 14:56 Sunny 91 32.8 28 -2.2 10 10 S 20 31 29.70 1006 10 16 0.00 0.00
3:26 pm 15:26 Sunny 92 33.3 27 -2.8 10 10 SSW 17 28 29.43 996 10 16 0.00 0.00
3:56 pm 15:56 Sunny 91 32.8 28 -2.2 10 10 SSW 14 22 29.69 1005 10 16 0.00 0.00
4:56 pm 16:56 Sunny 91 32.8 29 -1.7 11 11 SW 22 35 29.67 1005 10 16 0.00 0.00
5:56 pm 17:56 Mostly Cloudy with Haze 83 28.3 30 -1.1 15 15 W 29 46 29.70 1006 2 3 0.00 0.00
6:09 pm 18:09 Hazy 82 27.8 29 -1.7 14 14 W 29 46 29.49 999 3 5 0.00 0.00
6:56 pm 18:56 Hazy 80 26.7 29 -1.7 15 15 W 22 35 29.72 1006 4 6 0.00 0.00
7:56 pm 19:56 Hazy 78 25.6 26 -3.3 15 15 W 22 35 29.73 1007 5 8 0.00 0.00
8:56 pm 20:56 Mostly Cloudy with Light Rain 77 25 24 -4.4 14 14 W 22 35 29.75 1007 6 10 0.00 0.00
9:56 pm 21:56 Mostly Cloudy 74 23.3 25 -3.9 16 16 W 13 20 29.81 1009 10 16 0.00 0.00
10:56 pm 22:56 Clear 70 21.1 31 -0.6 23 23 WNW 8 13 29.83 1010 10 16 0.00 0.00
11:56 pm 23:56 Clear 60 15.6 32 0 35 35 SW 10 17 29.84 1010 10 16 0.00 0.00

Powered by AerisWeather